Abbotsford, British Columbia

12:21 AM PDT on April 27, 2018 (GMT -0700)
Abbotsford

Weather History for CYXX - August, 2013

Change the Weather History Date:

Friday, August 30, 2013

  Actual Average Record
Temperature  
Mean Temperature 65 °F -  
Max Temperature 72 °F 69 °F 86 °F (2003)
Min Temperature 58 °F 47 °F 46 °F (2010)
Growing Degree Days 15 (Base 50)    
Moisture  
Dew Point 59 °F    
Average Humidity 83    
Maximum Humidity 100    
Minimum Humidity 53    
Precipitation  
Precipitation 0.28 in 0.11 in - ()
Sea Level Pressure  
Sea Level Pressure 30.10 in    
Wind  
Wind Speed 8 mph ()    
Max Wind Speed 22 mph    
Max Gust Speed 30 mph    
Visibility 13.3 miles    
Events Fog , Rain    
Averages and records for this station are not official NWS values.
T = Trace of Precipitation, MM = Missing Value Source: Averaged Metar Reports

Daily Weather History Graph

Daily Weather History Graph

Search for Another Location

Airport or City:

Astronomy

Aug. 30, 2013 Rise Set
Actual Time 6:23 AM PDT 7:55 PM PDT
Civil Twilight 5:50 AM PDT 8:28 PM PDT
Nautical Twilight 5:10 AM PDT 9:08 PM PDT
Astronomical Twilight 4:26 AM PDT 9:52 PM PDT
Moon 12:50 AM PDT (8/30) 4:30 PM PDT (8/30)
Length of Visible Light 14h 37m
Length of Day
13h 31m
Waning Crescent, 28% of the Moon is Illuminated
Aug 30
Waning Crescent
Sep 5
New
Sep 12
First Quarter
Sep 19
Full
Sep 26
Last Quarter

Hourly Weather History & Observations

Time (PDT) Temp. Dew Point Humidity Pressure Visibility Wind Dir Wind Speed Gust Speed Precip Events Conditions
12:00 AM 68.0 °F 60.8 °F 78% 29.95 in 15.0 mi SW 8.1 mph - N/A   Mostly Cloudy
12:35 AM 68.0 °F 60.8 °F 78% 29.97 in 15.0 mi SW 21.9 mph - N/A Rain Light Rain Showers
1:00 AM 66.2 °F 60.8 °F 83% 29.99 in 8.0 mi SSW 17.3 mph 29.9 mph N/A Rain Light Rain Showers
1:11 AM 62.6 °F 60.8 °F 94% 30.00 in 4.0 mi SW 18.4 mph 28.8 mph N/A Rain Rain Showers
1:23 AM 62.6 °F 60.8 °F 94% 30.01 in 5.0 mi SSW 10.4 mph 18.4 mph N/A Rain Light Rain Showers
2:00 AM 62.6 °F 60.8 °F 94% 30.02 in 8.0 mi SSW 5.8 mph - N/A Rain Light Rain Showers
3:00 AM 60.8 °F 60.8 °F 100% 30.05 in 4.0 mi SSE 10.4 mph - N/A Rain Light Rain Showers
3:55 AM 59.0 °F 57.2 °F 94% 30.06 in 7.0 mi SSE 12.7 mph - N/A Rain Rain Showers
4:00 AM 59.0 °F 57.2 °F 94% 30.06 in 7.0 mi SSE 8.1 mph - N/A Rain Rain Showers
4:37 AM 59.0 °F 57.2 °F 94% 30.07 in 10.0 mi East 5.8 mph - N/A Rain Light Rain Showers
5:00 AM 59 °F 58 °F 94% 30.07 in 10 mi ESE 4.6 mph - - Rain Light Rain Showers
5:00 AM 59.0 °F 57.2 °F 94% 30.07 in 10.0 mi East 5.8 mph - N/A   Mostly Cloudy
6:00 AM 59.0 °F 59.0 °F 100% 30.09 in 20.0 mi NE 5.8 mph - N/A   Mostly Cloudy
7:00 AM 59.0 °F 59.0 °F 100% 30.10 in 20.0 mi NE 4.6 mph - N/A Fog Mostly Cloudy
8:00 AM 60.8 °F 59.0 °F 94% 30.12 in 30.0 mi East 5.8 mph - N/A   Mostly Cloudy
9:00 AM 62.6 °F 59.0 °F 88% 30.13 in 30.0 mi NE 3.5 mph - N/A Fog Mostly Cloudy
10:00 AM 64.4 °F 60.8 °F 88% 30.14 in 20.0 mi Calm Calm - N/A   Mostly Cloudy
11:00 AM 66 °F 60 °F 74% 30.17 in 15 mi South 1.2 mph - -   Overcast
11:00 AM 66.2 °F 59.0 °F 78% 30.17 in 15.0 mi Variable 2.3 mph - N/A   Overcast
12:00 PM 68.0 °F 60.8 °F 78% 30.17 in 15.0 mi Variable 2.3 mph - N/A   Overcast
1:00 PM 68.0 °F 59.0 °F 73% 30.17 in 15.0 mi WNW 3.5 mph - N/A   Overcast
2:00 PM 69.8 °F 60.8 °F 73% 30.17 in 15.0 mi North 5.8 mph - N/A   Mostly Cloudy
3:00 PM 69.8 °F 59.0 °F 68% 30.17 in 15.0 mi North 9.2 mph - N/A   Overcast
4:00 PM 71.6 °F 59.0 °F 64% 30.16 in 15.0 mi NNE 4.6 mph - N/A   Mostly Cloudy
5:00 PM 72 °F 58 °F 53% 30.15 in 15 mi WNW 1.2 mph - -   Scattered Clouds
5:00 PM 71.6 °F 59.0 °F 64% 30.15 in 15.0 mi North 4.6 mph - N/A   Mostly Cloudy
6:00 PM 71.6 °F 57.2 °F 60% 30.14 in 15.0 mi NNW 5.8 mph - N/A   Mostly Cloudy
7:00 PM 69.8 °F 59.0 °F 68% 30.14 in 20.0 mi NNW 4.6 mph - N/A   Scattered Clouds
8:00 PM 68.0 °F 59.0 °F 73% 30.13 in 20.0 mi NNE 2.3 mph - N/A   Scattered Clouds
9:00 PM 64.4 °F 59.0 °F 83% 30.14 in 15.0 mi NNW 3.5 mph - N/A   Scattered Clouds
10:00 PM 62.6 °F 59.0 °F 88% 30.13 in 15.0 mi NNE 6.9 mph - N/A   Scattered Clouds
11:00 PM 61 °F 58 °F 85% 30.12 in 15 mi NNE 5.8 mph - -   Clear
11:00 PM 60.8 °F 57.2 °F 88% 30.12 in 15.0 mi NNE 5.8 mph - N/A   Scattered Clouds